PVG786 EFHK-ESSA

Flight info

Callsign PVG786
Flight time 0h 43m
Altitude 36000
Route ADIVO Y365 POGOK DCT RUNGA N872 XILAN
Aircraft B772/H-SDE2E3FGHIJ5LORVWXY/LB1D1

Departure

Time 2026-04-24 19:43
Airport Helsinki Vantaa Airport (EFHK)

Arrival

Time 2026-04-24 20:27
Airport Stockholm-Arlanda Airport (ESSA)
Time Latitude Longitude Altitude Speed Heading
2026-04-24 19:04 60.31250 24.97543 167 ft 0 kts 243°
2026-04-24 19:26 60.31255 24.97570 167 ft 4 kts 254°
2026-04-24 19:26 60.31265 24.97619 167 ft 4 kts 236°
2026-04-24 19:27 60.31283 24.97657 166 ft 4 kts 209°
2026-04-24 19:27 60.31304 24.97674 165 ft 1 kts 192°
2026-04-24 19:27 60.31309 24.97676 165 ft 1 kts 192°
2026-04-24 19:32 60.31301 24.97673 165 ft 6 kts 192°
2026-04-24 19:33 60.31272 24.97663 166 ft 2 kts 187°
2026-04-24 19:33 60.31240 24.97674 167 ft 9 kts 161°
2026-04-24 19:33 60.31163 24.97770 166 ft 16 kts 117°
2026-04-24 19:33 60.31227 24.97942 163 ft 21 kts 356°
2026-04-24 19:34 60.31379 24.97804 161 ft 27 kts 333°
2026-04-24 19:34 60.31493 24.97687 160 ft 30 kts 333°
2026-04-24 19:34 60.31661 24.97513 163 ft 25 kts 332°
2026-04-24 19:34 60.31827 24.97341 166 ft 28 kts 333°
2026-04-24 19:35 60.32013 24.97149 170 ft 31 kts 333°
2026-04-24 19:35 60.32198 24.96958 170 ft 20 kts 332°
2026-04-24 19:35 60.32294 24.96830 169 ft 13 kts 290°
2026-04-24 19:35 60.32251 24.96671 172 ft 13 kts 229°
2026-04-24 19:36 60.32189 24.96532 172 ft 13 kts 228°
2026-04-24 19:36 60.32127 24.96393 173 ft 13 kts 228°
2026-04-24 19:36 60.32064 24.96255 172 ft 13 kts 226°
2026-04-24 19:36 60.31999 24.96120 173 ft 13 kts 226°
2026-04-24 19:37 60.31936 24.95984 174 ft 13 kts 229°
2026-04-24 19:37 60.31875 24.95843 173 ft 13 kts 229°
2026-04-24 19:37 60.31813 24.95704 174 ft 13 kts 227°
2026-04-24 19:37 60.31750 24.95569 175 ft 13 kts 227°
2026-04-24 19:38 60.31688 24.95431 175 ft 13 kts 227°
2026-04-24 19:38 60.31625 24.95292 174 ft 13 kts 228°
2026-04-24 19:38 60.31563 24.95153 174 ft 13 kts 228°
2026-04-24 19:38 60.31500 24.95015 173 ft 14 kts 227°
2026-04-24 19:39 60.31431 24.94866 171 ft 16 kts 227°
2026-04-24 19:39 60.31343 24.94673 166 ft 21 kts 228°
2026-04-24 19:39 60.31238 24.94438 163 ft 23 kts 227°
2026-04-24 19:39 60.31126 24.94195 162 ft 24 kts 227°
2026-04-24 19:40 60.31044 24.94002 163 ft 13 kts 241°
2026-04-24 19:40 60.31040 24.93880 163 ft 0 kts 287°
2026-04-24 19:41 60.31050 24.93829 163 ft 10 kts 298°
2026-04-24 19:41 60.31109 24.93700 162 ft 16 kts 318°
2026-04-24 19:41 60.31173 24.93730 163 ft 0 kts 47°
2026-04-24 19:43 60.31370 24.94164 165 ft 98 kts 47°
2026-04-24 19:43 60.32060 24.95682 289 ft 188 kts 47°
2026-04-24 19:43 60.32995 24.97708 1546 ft 199 kts 46°
2026-04-24 19:43 60.33956 24.99774 2794 ft 212 kts 46°
2026-04-24 19:44 60.34999 25.02026 3371 ft 223 kts 47°
2026-04-24 19:44 60.36059 25.04350 4147 ft 231 kts 47°
2026-04-24 19:44 60.37221 25.06903 4406 ft 264 kts 47°
2026-04-24 19:44 60.38496 25.09696 4295 ft 271 kts 47°
2026-04-24 19:45 60.39854 25.12265 4449 ft 271 kts 31°
2026-04-24 19:45 60.41631 25.13341 4970 ft 267 kts 359°
2026-04-24 19:45 60.43422 25.13183 6041 ft 260 kts 356°
2026-04-24 19:45 60.45281 25.13065 6739 ft 274 kts 359°
2026-04-24 19:46 60.47215 25.12971 7415 ft 282 kts 352°
2026-04-24 19:46 60.49045 25.11480 8136 ft 290 kts 321°
2026-04-24 19:46 60.50297 25.08317 9062 ft 291 kts 292°
2026-04-24 19:46 60.50689 25.04320 9918 ft 290 kts 271°
2026-04-24 19:47 60.50692 25.00124 10406 ft 309 kts 269°
2026-04-24 19:47 60.50689 24.95566 10673 ft 335 kts 270°
2026-04-24 19:47 60.50564 24.90838 11270 ft 346 kts 261°
2026-04-24 19:47 60.50029 24.86016 12050 ft 353 kts 255°
2026-04-24 19:48 60.49403 24.81159 12897 ft 359 kts 255°
2026-04-24 19:48 60.48760 24.76236 13752 ft 363 kts 255°
2026-04-24 19:48 60.47456 24.66170 15243 ft 375 kts 255°
2026-04-24 19:49 60.46133 24.55830 16765 ft 383 kts 255°
2026-04-24 19:49 60.44785 24.45233 18096 ft 393 kts 255°
2026-04-24 19:50 60.42545 24.29029 19978 ft 407 kts 252°
2026-04-24 19:50 60.41656 24.23571 20572 ft 411 kts 251°
2026-04-24 19:51 60.39821 24.12476 21708 ft 420 kts 251°
2026-04-24 19:51 60.38896 24.06851 22270 ft 423 kts 251°
2026-04-24 19:52 60.37031 23.95442 23174 ft 434 kts 251°
2026-04-24 19:52 60.36092 23.89695 23649 ft 438 kts 251°
2026-04-24 19:52 60.35134 23.83840 24206 ft 439 kts 251°
2026-04-24 19:52 60.34168 23.77947 24555 ft 446 kts 251°
2026-04-24 19:53 60.33181 23.71952 24887 ft 452 kts 251°
2026-04-24 19:53 60.32190 23.65947 25464 ft 451 kts 251°
2026-04-24 19:53 60.30195 23.53927 26337 ft 455 kts 251°
2026-04-24 19:54 60.29181 23.47852 26612 ft 459 kts 251°
2026-04-24 19:54 60.28156 23.41728 26905 ft 463 kts 251°
2026-04-24 19:54 60.27119 23.35558 27057 ft 469 kts 251°
2026-04-24 19:54 60.26076 23.29371 27101 ft 476 kts 251°
2026-04-24 19:55 60.25352 23.25087 27130 ft 481 kts 251°
2026-04-24 19:55 60.23908 23.16574 27209 ft 488 kts 251°
2026-04-24 19:55 60.22805 23.10097 27338 ft 491 kts 251°
2026-04-24 19:55 60.21694 23.03597 27466 ft 493 kts 251°
2026-04-24 19:56 60.20572 22.97055 27593 ft 495 kts 251°
2026-04-24 19:56 60.19444 22.90500 27719 ft 497 kts 251°
2026-04-24 19:56 60.18309 22.83929 27845 ft 499 kts 251°
2026-04-24 19:56 60.17183 22.77432 27969 ft 500 kts 251°
2026-04-24 19:57 60.16037 22.70832 28094 ft 501 kts 250°
2026-04-24 19:57 60.14885 22.64233 28219 ft 502 kts 250°
2026-04-24 19:57 60.13778 22.57595 28340 ft 502 kts 253°
2026-04-24 19:57 60.12871 22.50831 28465 ft 502 kts 256°
2026-04-24 19:58 60.12032 22.44024 28591 ft 503 kts 256°
2026-04-24 19:58 60.11213 22.37203 28715 ft 503 kts 256°
2026-04-24 19:58 60.10392 22.30392 28839 ft 503 kts 256°
2026-04-24 19:58 60.09569 22.23676 28961 ft 503 kts 256°
2026-04-24 19:59 60.08721 22.16875 29085 ft 503 kts 256°
2026-04-24 19:59 60.07860 22.10081 29208 ft 503 kts 255°
2026-04-24 19:59 60.06991 22.03298 29332 ft 503 kts 255°
2026-04-24 19:59 60.06159 21.96855 29449 ft 503 kts 255°
2026-04-24 20:00 60.05577 21.92364 29531 ft 503 kts 255°
2026-04-24 20:00 60.04399 21.83310 29696 ft 502 kts 255°
2026-04-24 20:00 60.03516 21.76554 29819 ft 502 kts 255°
2026-04-24 20:01 60.01751 21.63129 29960 ft 503 kts 255°
2026-04-24 20:01 59.99955 21.49576 30002 ft 506 kts 255°
2026-04-24 20:02 59.98441 21.38251 30006 ft 509 kts 255°
2026-04-24 20:02 59.96284 21.22253 30003 ft 512 kts 255°
2026-04-24 20:03 59.94415 21.08514 30002 ft 514 kts 255°
2026-04-24 20:03 59.92537 20.94836 29993 ft 508 kts 254°
2026-04-24 20:04 59.90678 20.81415 29993 ft 503 kts 254°
2026-04-24 20:04 59.88810 20.68034 29996 ft 500 kts 254°
2026-04-24 20:05 59.86940 20.54759 29999 ft 496 kts 254°
2026-04-24 20:05 59.85069 20.41577 30000 ft 494 kts 254°
2026-04-24 20:06 59.83204 20.28548 30000 ft 492 kts 254°
2026-04-24 20:06 59.82262 20.22005 29866 ft 494 kts 254°
2026-04-24 20:06 59.81308 20.15402 29440 ft 502 kts 253°
2026-04-24 20:06 59.80331 20.08672 28950 ft 510 kts 253°
2026-04-24 20:07 59.79677 20.04186 28624 ft 511 kts 253°
2026-04-24 20:07 59.78362 19.95188 27954 ft 504 kts 253°
2026-04-24 20:07 59.77384 19.88530 27448 ft 500 kts 253°
2026-04-24 20:07 59.76411 19.81922 26827 ft 498 kts 253°
2026-04-24 20:08 59.75441 19.75367 26099 ft 491 kts 253°
2026-04-24 20:08 59.74507 19.69020 25358 ft 482 kts 254°
2026-04-24 20:08 59.73615 19.62675 24610 ft 474 kts 254°
2026-04-24 20:08 59.72759 19.56436 23862 ft 466 kts 255°
2026-04-24 20:09 59.71914 19.50273 23114 ft 459 kts 255°
2026-04-24 20:09 59.71078 19.44215 22367 ft 453 kts 254°
2026-04-24 20:09 59.70245 19.38243 21620 ft 447 kts 254°
2026-04-24 20:09 59.69418 19.32359 20845 ft 438 kts 254°
2026-04-24 20:10 59.68617 19.26691 19911 ft 418 kts 254°
2026-04-24 20:10 59.67848 19.21264 18983 ft 401 kts 254°
2026-04-24 20:10 59.67106 19.16039 18059 ft 388 kts 254°
2026-04-24 20:10 59.66384 19.10981 17138 ft 377 kts 254°
2026-04-24 20:11 59.65688 19.06122 16231 ft 368 kts 254°
2026-04-24 20:11 59.65002 19.01303 15312 ft 361 kts 254°
2026-04-24 20:11 59.64328 18.96565 14394 ft 356 kts 254°
2026-04-24 20:11 59.63661 18.91890 13476 ft 351 kts 254°
2026-04-24 20:12 59.63002 18.87277 12558 ft 346 kts 254°
2026-04-24 20:12 59.62351 18.82736 11638 ft 341 kts 254°
2026-04-24 20:12 59.61707 18.78250 10720 ft 337 kts 254°
2026-04-24 20:12 59.61070 18.73833 9800 ft 332 kts 254°
2026-04-24 20:13 59.60439 18.69479 8881 ft 327 kts 253°
2026-04-24 20:13 59.59814 18.65190 7967 ft 322 kts 253°
2026-04-24 20:13 59.59199 18.60996 7194 ft 314 kts 253°
2026-04-24 20:13 59.58609 18.56976 6454 ft 303 kts 253°
2026-04-24 20:14 59.58036 18.53081 5726 ft 287 kts 253°
2026-04-24 20:14 59.57495 18.49408 5092 ft 272 kts 253°
2026-04-24 20:14 59.56980 18.45912 4459 ft 260 kts 253°
2026-04-24 20:14 59.56483 18.42549 3828 ft 251 kts 253°
2026-04-24 20:15 59.56000 18.39291 3203 ft 244 kts 253°
2026-04-24 20:15 59.55538 18.36189 2897 ft 225 kts 253°
2026-04-24 20:15 59.55114 18.33339 2720 ft 209 kts 253°
2026-04-24 20:15 59.54706 18.30608 2745 ft 214 kts 253°
2026-04-24 20:16 59.54338 18.27797 2717 ft 209 kts 265°
2026-04-24 20:16 59.54626 18.25040 2728 ft 210 kts 301°
2026-04-24 20:16 59.55694 18.23122 2756 ft 213 kts 335°
2026-04-24 20:16 59.57157 18.22737 2730 ft 216 kts 10°
2026-04-24 20:17 59.58493 18.24024 2727 ft 215 kts 39°
2026-04-24 20:17 59.60010 18.29006 2732 ft 215 kts 67°
2026-04-24 20:17 59.60600 18.31734 2732 ft 216 kts 67°
2026-04-24 20:18 59.60989 18.33545 2730 ft 217 kts 67°
2026-04-24 20:18 59.61764 18.37176 2724 ft 216 kts 68°
2026-04-24 20:18 59.62352 18.39944 2722 ft 215 kts 68°
2026-04-24 20:18 59.62921 18.42631 2723 ft 214 kts 68°
2026-04-24 20:19 59.63494 18.45343 2724 ft 214 kts 68°
2026-04-24 20:19 59.64066 18.48052 2725 ft 213 kts 68°
2026-04-24 20:19 59.64637 18.50757 2724 ft 212 kts 66°
2026-04-24 20:19 59.65472 18.53085 2716 ft 210 kts 36°
2026-04-24 20:20 59.66823 18.54041 2731 ft 210 kts
2026-04-24 20:20 59.68198 18.53264 2727 ft 205 kts 324°
2026-04-24 20:20 59.69042 18.51111 2736 ft 198 kts 289°
2026-04-24 20:20 59.69369 18.48476 2738 ft 202 kts 281°
2026-04-24 20:21 59.69632 18.45767 2722 ft 199 kts 280°
2026-04-24 20:21 59.69888 18.43078 2719 ft 198 kts 280°
2026-04-24 20:21 59.70124 18.40403 2718 ft 195 kts 278°
2026-04-24 20:21 59.70323 18.37797 2712 ft 189 kts 278°
2026-04-24 20:22 59.70514 18.35245 2716 ft 187 kts 278°
2026-04-24 20:22 59.70606 18.32681 2719 ft 188 kts 264°
2026-04-24 20:22 59.70409 18.30104 2733 ft 188 kts 259°
2026-04-24 20:22 59.70158 18.27667 2725 ft 174 kts 257°
2026-04-24 20:23 59.69886 18.25422 2734 ft 167 kts 256°
2026-04-24 20:23 59.69609 18.23219 2724 ft 165 kts 255°
2026-04-24 20:23 59.69326 18.20992 2494 ft 167 kts 255°
2026-04-24 20:23 59.69044 18.18776 2275 ft 165 kts 255°
2026-04-24 20:24 59.68854 18.17287 2127 ft 165 kts 255°
2026-04-24 20:24 59.68487 18.14398 1837 ft 159 kts 255°
2026-04-24 20:24 59.68230 18.12382 1627 ft 144 kts 255°
2026-04-24 20:24 59.67994 18.10527 1446 ft 136 kts 255°
2026-04-24 20:25 59.67763 18.08717 1274 ft 135 kts 255°
2026-04-24 20:25 59.67534 18.06917 1098 ft 135 kts 255°
2026-04-24 20:25 59.67307 18.05146 916 ft 134 kts 255°
2026-04-24 20:25 59.67076 18.03373 782 ft 132 kts 255°
2026-04-24 20:26 59.66849 18.01582 615 ft 136 kts 255°
2026-04-24 20:26 59.66627 17.99797 421 ft 133 kts 255°
2026-04-24 20:26 59.66403 17.98020 210 ft 133 kts 255°
2026-04-24 20:26 59.66182 17.96308 128 ft 117 kts 255°
2026-04-24 20:27 59.66020 17.95034 125 ft 69 kts 256°
2026-04-24 20:27 59.65948 17.94463 128 ft 16 kts 256°
2026-04-24 20:27 59.65904 17.94128 126 ft 27 kts 256°
2026-04-24 20:27 59.65852 17.93778 122 ft 26 kts 237°
2026-04-24 20:28 59.65769 17.93593 118 ft 15 kts 226°
2026-04-24 20:28 59.65696 17.93445 114 ft 15 kts 226°
2026-04-24 20:28 59.65628 17.93322 113 ft 11 kts 204°
2026-04-24 20:28 59.65561 17.93351 115 ft 10 kts 121°
2026-04-24 20:29 59.65556 17.93440 116 ft 10 kts 84°
2026-04-24 20:29 59.65572 17.93616 117 ft 10 kts 77°
2026-04-24 20:29 59.65588 17.93748 118 ft 10 kts 76°
2026-04-24 20:29 59.65568 17.93864 118 ft 10 kts 145°
2026-04-24 20:30 59.65544 17.93882 118 ft 3 kts 164°
2026-04-24 20:30 59.65514 17.93888 118 ft 5 kts 193°
2026-04-24 20:30 59.65490 17.93818 116 ft 7 kts 245°
2026-04-24 20:30 59.65480 17.93774 116 ft 2 kts 246°
2026-04-24 20:31 59.65475 17.93752 116 ft 0 kts 247°